This demonstration page uses our WeatherBlox Daily Observations layout. Learn more.

Left ArrowRight Arrow

Hourly Observations for March 11, 2020

Temp ( °F °C ) Dew Point ( °F °C ) Humidity (%) Winds ( mph kmh ) Pressure ( in mb ) Visibility ( mi km ) Precip ( " mm )
12:54 am 00:54 Clear with Mist and Fog 34 1.1 33 0.6 97 97 SSW 6 9 30.12 1020 4 6.43736 0 0
1:43 am 01:43 Clear with Mist and Fog 32 0 30 -1.1 92 92 N 6 9 30.14 1021 2 3.21868 0 0
1:54 am 01:54 Clear with Mist and Fog 31 -0.6 30 -1.1 96 96 Calm 30.11 1020 1.5 2.41401 0 0
2:04 am 02:04 Clear with Fog 33 0.6 31 -0.6 92 92 N 5 7 30.14 1021 0.5 0.80467 0 0
2:12 am 02:12 Clear with Mist and Fog 34 1.1 32 0 92 92 NNW 6 9 30.13 1020 2 3.21868 0 0
2:54 am 02:54 Clear with Mist and Fog 33 0.6 32 0 96 96 Calm 30.11 1020 2.5 4.02335 0 0
3:16 am 03:16 Clear with Mist and Fog 32 0 31 -0.6 96 96 Calm 30.14 1021 0.75 1.207005 0 0
3:25 am 03:25 Mostly Cloudy with Freezing Fog 31 -0.6 30 -1.1 96 96 Calm 30.14 1021 0.25 0.402335 0 0
3:54 am 03:54 Mostly Cloudy with Freezing Fog 30 -1.1 29 -1.7 96 96 Calm 30.1 1019 0.25 0.402335 0 0
4:13 am 04:13 Mostly Cloudy with Freezing Fog 28 -2.2 27 -2.8 96 96 Calm 30.13 1020 0.25 0.402335 0 0
4:22 am 04:22 Mostly Cloudy with Freezing Fog 29 -1.7 28 -2.2 96 96 Calm 30.12 1020 0.25 0.402335 0 0
4:32 am 04:32 Mostly Cloudy with Freezing Fog 28 -2.2 27 -2.8 96 96 Calm 30.12 1020 0.25 0.402335 0 0
4:54 am 04:54 Mostly Cloudy with Freezing Fog 29 -1.7 27 -2.8 92 92 N 6 9 30.06 1018 0.25 0.402335 0 0
5:54 am 05:54 Mostly Cloudy with Freezing Fog 29 -1.7 29 -1.7 100 100 N 3 6 30.06 1018 0.25 0.402335 0 0
6:54 am 06:54 Mostly Cloudy with Freezing Fog 29 -1.7 28 -2.2 96 96 Calm 30.07 1018 0.25 0.402335 0 0
7:38 am 07:38 Mostly Cloudy with Freezing Fog 29 -1.7 27 -2.8 92 92 Calm 30.13 1020 0.25 0.402335 0 0
7:51 am 07:51 Mostly Cloudy with Freezing Fog 28 -2 28 -2 100 100 Calm 30.13 1020 0.25 0.402335 0 0
7:54 am 07:54 Mostly Cloudy with Freezing Fog 29 -1.7 28 -2.2 96 96 Calm 30.09 1019 0.25 0.402335 0 0
8:05 am 08:05 Mostly Cloudy with Freezing Fog 29 -1.7 28 -2.2 96 96 Calm 30.14 1021 N/A 0 0
8:15 am 08:15 Mostly Cloudy with Freezing Fog 30 -1.1 29 -1.7 96 96 Calm 30.13 1020 N/A 0 0
8:54 am 08:54 Mostly Cloudy with Freezing Fog 31 -0.6 30 -1.1 96 96 Calm 30.09 1019 N/A 0 0
9:54 am 09:54 Mostly Cloudy with Fog 33 0.6 33 0.6 100 100 Calm 30.09 1019 N/A 0 0
10:18 am 10:18 Mostly Cloudy with Fog 35 1.7 35 1.7 100 100 Calm 30.11 1020 N/A 0 0
10:31 am 10:31 Mostly Cloudy with Fog 36 2.2 35 1.7 97 97 Calm 30.1 1019 0.25 0.402335 0 0
10:54 am 10:54 Mostly Cloudy with Fog 37 2.8 37 2.8 100 100 Calm 30.08 1019 0.5 0.80467 0 0
11:17 am 11:17 Mostly Cloudy with Fog 40 4.4 38 3.3 93 93 SSW 3 6 30.09 1019 0.25 0.402335 0 0
11:36 am 11:36 Cloudy with Mist and Fog 41 5 39 3.9 93 93 SW 8 13 30.1 1019 0.75 1.207005 0 0
11:54 am 11:54 Cloudy with Mist and Fog 42 5.6 41 5 96 96 S 8 13 30.07 1018 1.75 2.816345 0 0
11:58 am 11:58 Cloudy with Mist and Fog 43 6.1 41 5 93 93 SSW 7 11 30.08 1019 3 4.82802 0 0
12:40 pm 12:40 Cloudy 46 7.8 43 6.1 89 89 SSW 6 9 30.05 1018 7 11.26538 0 0
12:54 pm 12:54 Cloudy 49 9.4 44 6.7 83 83 SSW 7 11 30.04 1017 9 14.48406 0 0
1:08 pm 13:08 Mostly Cloudy 53 11.7 45 7.2 74 74 SSW 14 22 30.01 1016 10 16.0934 0 0
1:27 pm 13:27 Partly Cloudy 54 12.2 44 6.7 69 69 S 12 19 29.99 1016 10 16.0934 0 0
1:54 pm 13:54 Sunny 55 12.8 44 6.7 67 67 SSW 13 20 29.98 1015 10 16.0934 0 0
2:54 pm 14:54 Sunny 57 13.9 44 6.7 62 62 SSW 16 26 29.93 1014 10 16.0934 0 0
3:54 pm 15:54 Sunny 61 16.1 45 7.2 56 56 SSW 16 26 29.88 1012 10 16.0934 0 0
4:54 pm 16:54 Sunny 64 17.8 43 6.1 46 46 SSW 16 26 29.86 1011 10 16.0934 0 0
5:54 pm 17:54 Sunny 63 17.2 40 4.4 43 43 SSW 12 19 29.84 1010 10 16.0934 0 0
6:54 pm 18:54 Sunny 60 15.6 43 6.1 53 53 S 9 15 29.83 1010 10 16.0934 0 0
7:54 pm 19:54 Clear 53 11.7 41 5 64 64 S 12 19 29.81 1009 10 16.0934 0 0
8:54 pm 20:54 Clear 57 13.9 42 5.6 58 58 S 16 26 29.79 1009 10 16.0934 0 0
9:54 pm 21:54 Clear 57 13.9 43 6.1 60 60 S 16 26 29.77 1008 10 16.0934 0 0
10:54 pm 22:54 Clear 58 14.4 44 6.7 60 60 S 15 24 29.75 1007 10 16.0934 0 0
11:54 pm 23:54 Clear 56 13.3 42 5.6 60 60 S 17 28 29.73 1007 10 16.0934 0 0

Powered by AerisWeather